Regional Weather Roundup
Issued by NWS Goodland, KS

Home | Current Version | Previous Version | Text Only | Print | Product List | Glossary On
Versions: 1 2 3 4 5 6 7 8 9 10 11 12 13 14 15 16 17 18 19 20 21 22 23 24 25 26 27 28 29 30 31 32 33 34 35 36 37 38 39 40 41 42 43 44 45 46 47 48 49 50
000
ASUS43 KGLD 260608
RWRGLD

GOODLAND FORECAST AREA HOURLY WEATHER ROUNDUP
NATIONAL WEATHER SERVICE GOODLAND KS
1200 AM MDT SUN APR 26 2015

...OFFICIAL OBSERVATIONS...

CITY           SKY/WX    TMP DP  RH WIND       PRES   REMARKS
GOODLAND KS    FOG       50  50 100 E17       29.80R VSB 3/4
HILL CITY KS   CLOUDY    49  47  93 NE14      29.85R FOG
IMPERIAL NEB   CLOUDY    48  45  89 E15       29.86R
MCCOOK NEB     CLOUDY    48  46  93 E16       29.85R FOG
AKRON CO       CLOUDY    47  46  97 E17       29.80S
BURLINGTON CO  CLOUDY    51  49  92 SE24      29.77R FOG
LIMON CO       CLOUDY    52  43  71 SE16G25   29.77R
$$

...UNOFFICIAL OBSERVATIONS...

CITY           SKY/WX    TMP DP  RH WIND       PRES   REMARKS
GOVE KS          N/A     50  32  50 MISG        N/A
LENORA KS        N/A     47  32  56 MISG        N/A
SHARON SPRINGS   N/A     52  50  93 E15         N/A
TRIBUNE KS     CLOUDY    54  54 100 E21       29.77S
KIT CARSON CO    N/A     53  49  87 MISG        N/A
YUMA CO          N/A     46  42  86 NE20        N/A
$$


USA.gov is the U.S. government's official web portal to all federal, state and local government web resources and services.